When you browse on this site, cookies collect data to enhance your experience and personalize the content and advertising you see.
Visit our Privacy Policy to learn more. By continuing to use the site, you agree to this use of cookies and data.
  • In Österreich
  • Länderverzeichnis
  • Für 7 Tage
  • Wassertemperatur
  • Satellitenkarten
  • Wetterkarte
  • News
  • Widgets
  • user-avatar
    Anmelden

    Stündliche Wetter Nagoya

    Heute, 22 Juli, Montag

    Zeit Temperatur Niederschläge Wind Luftdruck Luftfeuchtigkeit
    00:00 +27°C° 0 mm 2 m/S 748 mmHg 87%
    01:00 +27°C° 0.1 mm 2 m/S 748 mmHg 88%
    02:00 +27°C° 0.1 mm 2 m/S 748 mmHg 89%
    03:00 +27°C° 0 mm 2 m/S 748 mmHg 89%
    04:00 +27°C° 0.3 mm 2 m/S 748 mmHg 90%
    05:00 +27°C° 0.3 mm 2 m/S 748 mmHg 90%
    06:00 +27°C° 0.3 mm 2 m/S 748 mmHg 90%
    07:00 +27°C° 0.6 mm 2 m/S 748 mmHg 90%
    08:00 +27°C° 0.6 mm 2 m/S 748 mmHg 89%
    09:00 +27°C° 0.6 mm 1 m/S 748 mmHg 89%
    10:00 +27°C° 1.2 mm 1 m/S 747 mmHg 88%
    11:00 +27°C° 1.2 mm 1 m/S 747 mmHg 87%
    12:00 +27°C° 1.2 mm 1 m/S 747 mmHg 86%
    13:00 +28°C° 0.7 mm 1 m/S 747 mmHg 81%
    14:00 +29°C° 0.7 mm 2 m/S 746 mmHg 76%
    15:00 +30°C° 0.7 mm 2 m/S 746 mmHg 71%
    16:00 +29°C° 0.6 mm 2 m/S 746 mmHg 73%
    17:00 +29°C° 0.6 mm 2 m/S 746 mmHg 75%
    18:00 +28°C° 0.6 mm 2 m/S 746 mmHg 78%
    19:00 +28°C° 0.9 mm 2 m/S 746 mmHg 81%
    20:00 +27°C° 0.9 mm 2 m/S 746 mmHg 83%
    21:00 +27°C° 0.9 mm 2 m/S 746 mmHg 86%
    22:00 +27°C° 0.9 mm 2 m/S 746 mmHg 87%
    23:00 +26°C° 0.9 mm 1 m/S 746 mmHg 87%

    Morgen, 23 Juli, Dienstag

    Zeit Temperatur Niederschläge Wind Luftdruck Luftfeuchtigkeit
    00:00 +26°C° 0.9 mm 1 m/S 746 mmHg 88%
    01:00 +26°C° 0.6 mm 1 m/S 746 mmHg 88%
    02:00 +26°C° 0.6 mm 1 m/S 745 mmHg 88%
    03:00 +26°C° 0.6 mm 1 m/S 745 mmHg 89%
    04:00 +26°C° 0.5 mm 1 m/S 745 mmHg 89%
    05:00 +26°C° 0.5 mm 1 m/S 745 mmHg 88%
    06:00 +24°C° 0.5 mm 0 m/S 745 mmHg 88%
    07:00 +25°C° 0.2 mm 0 m/S 745 mmHg 83%
    08:00 +28°C° 0.2 mm 1 m/S 745 mmHg 78%
    09:00 +30°C° 0.2 mm 1 m/S 745 mmHg 72%
    10:00 +31°C° 0.3 mm 1 m/S 745 mmHg 67%
    11:00 +32°C° 0.3 mm 1 m/S 744 mmHg 62%
    12:00 +34°C° 0.3 mm 1 m/S 744 mmHg 57%
    13:00 +34°C° 0.3 mm 1 m/S 744 mmHg 54%
    14:00 +34°C° 0.3 mm 1 m/S 743 mmHg 52%
    15:00 +35°C° 0.3 mm 2 m/S 743 mmHg 50%
    16:00 +35°C° 0.2 mm 2 m/S 743 mmHg 53%
    17:00 +34°C° 0.2 mm 2 m/S 743 mmHg 57%
    18:00 +32°C° 0.2 mm 2 m/S 743 mmHg 60%
    19:00 +31°C° 0.4 mm 2 m/S 743 mmHg 63%
    20:00 +30°C° 0.4 mm 2 m/S 744 mmHg 67%
    21:00 +29°C° 0.4 mm 2 m/S 744 mmHg 70%
    22:00 +29°C° 0.2 mm 2 m/S 744 mmHg 72%
    23:00 +28°C° 0.2 mm 2 m/S 744 mmHg 74%

    übermorgen, 24 Juli, Mittwoch

    Zeit Temperatur Niederschläge Wind Luftdruck Luftfeuchtigkeit
    00:00 +28°C° 0.2 mm 1 m/S 744 mmHg 76%
    01:00 +27°C° 0.2 mm 1 m/S 744 mmHg 77%
    02:00 +27°C° 0.2 mm 1 m/S 744 mmHg 78%
    03:00 +27°C° 0.2 mm 1 m/S 744 mmHg 79%
    04:00 +27°C° 0 mm 1 m/S 744 mmHg 79%
    05:00 +27°C° 0 mm 1 m/S 744 mmHg 79%
    06:00 +27°C° 0 mm 1 m/S 744 mmHg 79%
    07:00 +27°C° 0 mm 0 m/S 745 mmHg 73%
    08:00 +28°C° 0 mm 0 m/S 745 mmHg 67%
    09:00 +30°C° 0 mm 0 m/S 745 mmHg 61%
    10:00 +31°C° 0.2 mm 0 m/S 745 mmHg 56%
    11:00 +34°C° 0.2 mm 1 m/S 745 mmHg 52%
    12:00 +35°C° 0.2 mm 1 m/S 745 mmHg 48%
    13:00 +36°C° 0.1 mm 2 m/S 744 mmHg 47%
    14:00 +36°C° 0.1 mm 2 m/S 744 mmHg 47%
    15:00 +36°C° 0.1 mm 2 m/S 744 mmHg 46%
    16:00 +36°C° 0 mm 2 m/S 744 mmHg 49%
    17:00 +35°C° 0 mm 2 m/S 745 mmHg 51%
    18:00 +34°C° 0 mm 2 m/S 745 mmHg 54%
    19:00 +32°C° 0 mm 2 m/S 745 mmHg 58%
    20:00 +31°C° 0 mm 2 m/S 746 mmHg 63%
    21:00 +29°C° 0 mm 1 m/S 746 mmHg 67%
    22:00 +29°C° 0 mm 1 m/S 746 mmHg 69%
    23:00 +28°C° 0 mm 1 m/S 746 mmHg 71%

    25 Juli, Donnerstag

    Zeit Temperatur Niederschläge Wind Luftdruck Luftfeuchtigkeit
    00:00 +28°C° 0 mm 1 m/S 746 mmHg 73%
    01:00 +28°C° 0 mm 1 m/S 746 mmHg 74%
    02:00 +27°C° 0 mm 1 m/S 746 mmHg 75%
    03:00 +25°C° 0 mm 0 m/S 746 mmHg 76%
    04:00 +27°C° 0 mm 1 m/S 746 mmHg 76%
    05:00 +27°C° 0 mm 1 m/S 747 mmHg 75%
    06:00 +27°C° 0 mm 1 m/S 747 mmHg 75%
    07:00 +29°C° 0 mm 1 m/S 747 mmHg 68%
    08:00 +29°C° 0 mm 0 m/S 747 mmHg 62%
    09:00 +31°C° 0 mm 0 m/S 747 mmHg 56%
    10:00 +34°C° 0 mm 1 m/S 747 mmHg 52%
    11:00 +35°C° 0 mm 1 m/S 747 mmHg 48%
    12:00 +37°C° 0 mm 1 m/S 746 mmHg 43%
    13:00 +38°C° 0 mm 2 m/S 746 mmHg 42%
    14:00 +38°C° 0 mm 2 m/S 746 mmHg 41%
    15:00 +38°C° 0 mm 2 m/S 745 mmHg 39%
    16:00 +37°C° 0 mm 3 m/S 745 mmHg 45%
    17:00 +36°C° 0 mm 3 m/S 745 mmHg 50%
    18:00 +34°C° 0 mm 4 m/S 745 mmHg 56%
    19:00 +33°C° 0.3 mm 4 m/S 746 mmHg 61%
    20:00 +32°C° 0.3 mm 4 m/S 746 mmHg 66%
    21:00 +30°C° 0.3 mm 3 m/S 747 mmHg 71%
    22:00 +29°C° 0 mm 3 m/S 747 mmHg 73%
    23:00 +29°C° 0 mm 2 m/S 747 mmHg 75%

    26 Juli, Freitag

    Zeit Temperatur Niederschläge Wind Luftdruck Luftfeuchtigkeit
    00:00 +28°C° 0 mm 2 m/S 747 mmHg 78%
    01:00 +28°C° 0 mm 2 m/S 747 mmHg 79%
    02:00 +28°C° 0 mm 2 m/S 747 mmHg 80%
    03:00 +27°C° 0 mm 2 m/S 747 mmHg 81%
    04:00 +27°C° 0 mm 1 m/S 747 mmHg 81%
    05:00 +27°C° 0 mm 1 m/S 747 mmHg 82%
    06:00 +27°C° 0 mm 1 m/S 747 mmHg 82%
    07:00 +29°C° 0 mm 1 m/S 747 mmHg 75%
    08:00 +30°C° 0 mm 1 m/S 747 mmHg 68%
    09:00 +31°C° 0 mm 1 m/S 747 mmHg 61%
    10:00 +34°C° 0 mm 2 m/S 747 mmHg 56%
    11:00 +35°C° 0 mm 2 m/S 747 mmHg 51%
    12:00 +36°C° 0 mm 3 m/S 746 mmHg 47%
    13:00 +36°C° 0 mm 3 m/S 746 mmHg 46%
    14:00 +37°C° 0 mm 3 m/S 746 mmHg 45%
    15:00 +37°C° 0 mm 3 m/S 746 mmHg 44%
    16:00 +36°C° 0 mm 3 m/S 746 mmHg 48%
    17:00 +35°C° 0 mm 3 m/S 746 mmHg 53%
    18:00 +34°C° 0 mm 3 m/S 746 mmHg 58%
    19:00 +33°C° 0 mm 3 m/S 746 mmHg 60%
    20:00 +31°C° 0 mm 2 m/S 746 mmHg 62%
    21:00 +30°C° 0 mm 2 m/S 747 mmHg 64%
    22:00 +30°C° 0 mm 2 m/S 747 mmHg 65%
    23:00 +29°C° 0 mm 1 m/S 747 mmHg 66%

    27 Juli, Samstag

    Zeit Temperatur Niederschläge Wind Luftdruck Luftfeuchtigkeit
    00:00 +29°C° 0 mm 1 m/S 747 mmHg 67%
    01:00 +28°C° 0 mm 1 m/S 747 mmHg 68%
    02:00 +28°C° 0 mm 1 m/S 747 mmHg 68%
    03:00 +26°C° 0 mm 0 m/S 747 mmHg 69%
    04:00 +26°C° 0 mm 0 m/S 747 mmHg 69%
    05:00 +28°C° 0 mm 1 m/S 747 mmHg 69%
    06:00 +28°C° 0 mm 1 m/S 747 mmHg 69%
    07:00 +30°C° 0 mm 1 m/S 747 mmHg 63%
    08:00 +32°C° 0 mm 1 m/S 747 mmHg 57%
    09:00 +33°C° 0 mm 1 m/S 747 mmHg 51%
    10:00 +35°C° 0 mm 1 m/S 747 mmHg 48%
    11:00 +37°C° 0 mm 2 m/S 747 mmHg 44%
    12:00 +38°C° 0 mm 2 m/S 746 mmHg 41%
    13:00 +38°C° 0 mm 3 m/S 746 mmHg 41%
    14:00 +38°C° 0 mm 3 m/S 746 mmHg 41%
    15:00 +38°C° 0 mm 3 m/S 746 mmHg 41%
    16:00 +38°C° 0 mm 3 m/S 746 mmHg 43%
    17:00 +37°C° 0 mm 3 m/S 746 mmHg 45%
    18:00 +36°C° 0 mm 3 m/S 746 mmHg 47%
    19:00 +35°C° 0 mm 3 m/S 747 mmHg 52%
    20:00 +33°C° 0 mm 3 m/S 747 mmHg 56%
    21:00 +31°C° 0 mm 2 m/S 748 mmHg 61%
    22:00 +30°C° 0 mm 2 m/S 748 mmHg 62%
    23:00 +30°C° 0 mm 2 m/S 747 mmHg 64%
    Mehr zeigen